Weather History for Waterville, ME

Change the Weather History Date:

Tuesday, December 31, 2013

  Actual Average Record
Temperature  
Mean Temperature 0 °F -  
Max Temperature 6 °F 31 °F 48 °F (2010)
Min Temperature -7 °F 9 °F -12 °F (1963)
Degree Days  
Heating Degree Days 66    
Moisture  
Dew Point -6 °F    
Average Humidity 79    
Maximum Humidity 92    
Minimum Humidity 56    
Precipitation  
Precipitation 0.00 in - - ()
Sea Level Pressure  
Sea Level Pressure 30.06 in    
Wind  
Wind Speed - (North)    
Max Wind Speed -    
Max Gust Speed -    
Visibility 10 miles    
Events      
Averages and records for this station are not official NWS values.
T = Trace of Precipitation, MM = Missing Value Source: NWS Daily Summary

Daily Weather History Graph

Daily Weather History Graph

Search for Another Location

Airport:

Trip Planner

Search our weather history database for the weather conditions in past years. The results will help you decide how hot, cold, wet, or windy it might be!

Date:

Astronomy

Dec. 31, 2013 Rise Set
Actual Time 7:15 AM EST 4:08 PM EST
Civil Twilight 6:41 AM EST 4:41 PM EST
Nautical Twilight 6:05 AM EST 5:18 PM EST
Astronomical Twilight 5:29 AM EST 5:54 PM EST
Moon 6:02 AM EST (12/31) 3:42 PM EST (12/31)
Length of Visible Light 10h 00m
Length of Day
8h 53m
Waning Crescent, 1% of the Moon is Illuminated
Dec 31
Waning Crescent
Jan 1
New
Jan 7
First Quarter
Jan 15
Full
Jan 24
Last Quarter

Hourly Weather History & Observations

Time (EST) Temp. Dew Point Humidity Pressure Visibility Wind Dir Wind Speed Gust Speed Precip Events Conditions
12:15 AM 1.4 °F -7.6 °F 66% 30.11 in 10.0 mi North - - N/A   Clear
12:35 AM 1.4 °F -5.8 °F 72% 30.11 in 10.0 mi North - - N/A   Clear
12:55 AM 1.4 °F -7.6 °F 66% 30.11 in 10.0 mi North - - N/A   Clear
1:15 AM 1.4 °F -5.8 °F 72% 30.10 in 10.0 mi North - - N/A   Clear
1:35 AM 1.4 °F -7.6 °F 66% 30.10 in 10.0 mi North - - N/A   Clear
1:55 AM -0.4 °F -7.6 °F 72% 30.10 in 10.0 mi North - - N/A   Clear
2:15 AM -2.2 °F -9.4 °F 71% 30.10 in 10.0 mi North - - N/A   Clear
2:35 AM -2.2 °F -7.6 °F 78% 30.11 in 10.0 mi North - - N/A   Clear
2:55 AM -2.2 °F -7.6 °F 78% 30.10 in 10.0 mi North - - N/A   Clear
3:15 AM -2.2 °F -7.6 °F 78% 30.10 in 10.0 mi North - - N/A   Clear
3:35 AM -2.2 °F -7.6 °F 78% 30.10 in 10.0 mi North - - N/A   Clear
3:55 AM -4.0 °F -7.6 °F 85% 30.11 in 10.0 mi North - - N/A   Clear
4:15 AM -4.0 °F -7.6 °F 85% 30.10 in 10.0 mi North - - N/A   Clear
4:35 AM -5.8 °F -9.4 °F 84% 30.11 in 10.0 mi North - - N/A   Clear
4:55 AM -5.8 °F -7.6 °F 92% 30.11 in 10.0 mi North - - N/A   Clear
5:15 AM -5.8 °F -7.6 °F 92% 30.11 in 10.0 mi North - - N/A   Clear
5:35 AM -5.8 °F -7.6 °F 92% 30.11 in 10.0 mi North - - N/A   Clear
5:55 AM - - N/A% - 10.0 mi North - - N/A   Clear
6:15 AM -5.8 °F -7.6 °F 92% 30.11 in 10.0 mi North - - N/A   Clear
6:35 AM -7.6 °F -11.2 °F 84% 30.09 in 10.0 mi North - - N/A   Clear
6:55 AM -5.8 °F -7.6 °F 92% 30.10 in 10.0 mi North - - N/A   Clear
7:15 AM - - N/A% - 10.0 mi North - - N/A   Scattered Clouds
7:35 AM -5.8 °F -7.6 °F 92% 30.11 in 10.0 mi North - - N/A   Scattered Clouds
7:55 AM -5.8 °F -7.6 °F 92% 30.11 in 10.0 mi North - - N/A   Scattered Clouds
8:15 AM -2.2 °F -7.6 °F 78% 30.12 in 10.0 mi North - - N/A   Partly Cloudy
8:35 AM -2.2 °F -7.6 °F 78% 30.12 in 10.0 mi North - - N/A   Mostly Cloudy
8:55 AM -2.2 °F -5.8 °F 85% 30.12 in 10.0 mi North - - N/A   Partly Cloudy
9:15 AM -0.4 °F -2.2 °F 92% 30.12 in 10.0 mi North - - N/A   Clear
9:35 AM -0.4 °F -2.2 °F 92% 30.11 in 10.0 mi North - - N/A   Clear
9:55 AM 1.4 °F -5.8 °F 72% 30.10 in 10.0 mi North - - N/A   Clear
10:15 AM 1.4 °F -4.0 °F 78% 30.09 in 10.0 mi North - - N/A   Clear
10:35 AM 3.2 °F -2.2 °F 78% 30.09 in 10.0 mi North - - N/A   Clear
10:55 AM 1.4 °F -5.8 °F 72% 30.08 in 10.0 mi North - - N/A   Clear
11:15 AM 3.2 °F -5.8 °F 66% 30.07 in 10.0 mi North - - N/A   Clear
11:35 AM 3.2 °F -4.0 °F 72% 30.05 in 10.0 mi North - - N/A   Clear
11:55 AM 3.2 °F -4.0 °F 72% 30.04 in 10.0 mi North - - N/A   Clear
12:15 PM 5.0 °F -2.2 °F 72% 30.03 in 10.0 mi North - - N/A   Clear
12:35 PM 6.8 °F -2.2 °F 67% 30.02 in 10.0 mi North - - N/A   Clear
12:55 PM 6.8 °F -2.2 °F 67% 30.01 in 10.0 mi North - - N/A   Partly Cloudy
1:15 PM 5.0 °F -5.8 °F 61% 30.01 in 10.0 mi North - - N/A   Scattered Clouds
1:35 PM 6.8 °F -4.0 °F 61% 30.01 in 10.0 mi North - - N/A   Scattered Clouds
1:55 PM 6.8 °F -5.8 °F 56% 30.00 in 10.0 mi North - - N/A   Scattered Clouds
2:15 PM 6.8 °F -4.0 °F 61% 29.99 in 10.0 mi North - - N/A   Partly Cloudy
2:35 PM 6.8 °F -2.2 °F 67% 29.99 in 10.0 mi North - - N/A   Partly Cloudy
3:15 PM 6.8 °F -4.0 °F 61% 29.99 in 10.0 mi North - - N/A   Partly Cloudy
3:35 PM 6.8 °F -2.2 °F 67% 29.99 in 10.0 mi North - - N/A   Clear
3:55 PM 5.0 °F -0.4 °F 78% 29.99 in 10.0 mi North - - N/A   Clear
4:15 PM 3.2 °F -0.4 °F 85% 30.00 in 10.0 mi North - - N/A   Partly Cloudy
4:35 PM 3.2 °F -2.2 °F 78% 30.01 in 10.0 mi North - - N/A   Mostly Cloudy
4:55 PM 3.2 °F -0.4 °F 85% 30.02 in 10.0 mi North - - N/A   Partly Cloudy
5:15 PM 3.2 °F -0.4 °F 85% 30.02 in 10.0 mi North - - N/A   Clear
5:35 PM 3.2 °F -0.4 °F 85% 30.03 in 10.0 mi North - - N/A   Clear
5:55 PM 1.4 °F -2.2 °F 85% 30.02 in 10.0 mi North - - N/A   Clear
6:15 PM 1.4 °F -2.2 °F 85% 30.03 in 10.0 mi North - - N/A   Clear
6:35 PM -2.2 °F -7.6 °F 78% 30.04 in 10.0 mi North - - N/A   Clear
6:55 PM -2.2 °F -5.8 °F 85% 30.04 in 10.0 mi North - - N/A   Clear
7:35 PM -2.2 °F -5.8 °F 85% 30.03 in 10.0 mi North - - N/A   Clear
7:55 PM -2.2 °F -5.8 °F 85% 30.04 in 10.0 mi North - - N/A   Clear
8:15 PM -2.2 °F -4.0 °F 92% 30.03 in 10.0 mi North - - N/A   Clear
8:35 PM -5.8 °F -11.2 °F 77% 30.03 in 10.0 mi North - - N/A   Clear
8:55 PM -5.8 °F -7.6 °F 92% 30.03 in 10.0 mi North - - N/A   Clear
9:15 PM -4.0 °F -5.8 °F 92% 30.02 in 10.0 mi North - - N/A   Clear
9:35 PM -5.8 °F -9.4 °F 84% 30.02 in 10.0 mi North - - N/A   Clear
9:55 PM -4.0 °F -5.8 °F 92% 30.02 in 10.0 mi North - - N/A   Partly Cloudy
10:15 PM -5.8 °F -9.4 °F 84% 30.02 in 10.0 mi North - - N/A   Scattered Clouds
10:35 PM -5.8 °F -7.6 °F 92% 30.04 in 10.0 mi North - - N/A   Scattered Clouds
11:15 PM -4.0 °F -9.4 °F 78% 30.04 in 10.0 mi North - - N/A   Scattered Clouds
11:35 PM -5.8 °F -7.6 °F 92% 30.04 in 10.0 mi North - - N/A   Partly Cloudy
11:55 PM -5.8 °F -7.6 °F 92% 30.04 in 10.0 mi North - - N/A   Clear